一网星座-0457星 (ONEWEB-0457 )

导读 | 豆包AI

ONEWEB-0457是英国OneWeb卫星星座的一员,于北京时间2022年2月10日发射入轨,运行在近地轨道,属于低轨宽带通信卫星。OneWeb星座计划打造由超600颗卫星组成的全球卫星互联网网络,ONEWEB-0457的入轨,助力拓展星座覆盖范围,为全球偏远地区、海上航空等场景提供高速低延迟的网络连接服务,推动全球互联基础设施建设。

Basic Information
目录编号:
51647
目录名称:
ONEWEB-0457
国际标识:
2022-012AB
轨道中心:
EARTH
卫星名称:
一网星座-0457星
卫星全名:
一网星座-0457星 (ONEWEB-0457 )
卫星状态:
在轨 (已飞行1493 天)
发射日期:
2022-02-10 UTC
国别 :
英国 (GB)
星等 :
--
Orbit Information
数据来源 国际轨道数据 AOE轨道数据
星历时间 2026-03-14T06:47:24+0800
8小时前
查看轨道信息
2026-03-13T16:00:00+0800
23小时前
查看轨道信息
半长轴 7599.866km 7599.877km
偏心率 0.0002013 0.0001388
轨道倾角 87.877° 87.878°
近地点辐角 69.547° 107.337°
升交点赤经 55.232° 55.348°
平近点角 290.588° 227.409°
近地点 1220.199km 1220.685km
远地点 1223.259km 1222.795km
周期 109.893分钟 109.893分钟
每日圈数 13.1037 13.103671
Detailed Information
平衡模式:
三轴稳定
覆盖范围:
全球
运营商:
一网卫星公司
运营商所在国:
英国
制造商(研发单位):
一网卫星公司
制造商所在国:
英国
使用方式:
暂无
Satellite Introduction
OneWeb卫星网络由648颗重约125公斤的微型卫星组成,运行在1200公里的轨道上。 每颗卫星都能够提供至少每秒8千兆位的吞吐量,以使用其高吞吐量的Ku频段有效载荷为家庭和移动平台提供互联网接入。该卫星仍在工作。
2D Orbit Map
3D Orbit Map
Orbit Altitude Analysis Chart
Orbit Inclination Analysis Chart
Orbit Comprehensive Analysis Chart
View Comprehensive Chart